AirNav   Everest Fuels
 
 378 users online  

5B9 Dean Memorial Airport
Haverhill, New Hampshire, USA

GOING TO HAVERHILL?


FAA INFORMATION EFFECTIVE 31 DECEMBER 2020

Location

FAA Identifier: 5B9
Lat/Long: 44-04-48.6222N 072-00-27.9357W
44-04.810370N 072-00.465595W
44.0801728,-72.0077599
(estimated)
Elevation: 581.7 ft. / 177.3 m (surveyed)
Variation: 16W (2005)
From city: 3 miles NE of HAVERHILL, NH
Time zone: UTC -5 (UTC -4 during Daylight Saving Time)
Zip code: 03774

Airport Operations

Airport use: Open to the public
Activation date: 07/1902
Control tower: no
ARTCC: BOSTON CENTER
FSS: BANGOR FLIGHT SERVICE STATION
NOTAMs facility: BGR (NOTAM-D service available)
Attendance: SATURDAY 0900-1200
Wind indicator: lighted
Segmented circle: no
Lights: ACTVT LIRL RY 01/19 & WINDSOCK - CTAF.

Airport Communications

CTAF/UNICOM: 122.8
  • APCH/DEP SVC PRVDD BY BOSTON ARTCC ON FREQS 135.7/282.2 (MONTPELIER RCAG).

Nearby radio navigation aids

VOR radial/distance  VOR name  Freq  Var
MPVr107/19.0MONTPELIER VOR/DME110.8016W
LEBr036/25.7LEBANON VOR/DME113.7015W

 
NDB name  Hdg/Dist  Freq  Var  ID
MAHN236/21.938617WGMA --. -- .-
HANOVER033/23.827615WLAH .-.. .- ....

Airport Services

Fuel available: 100LL
MUST CALL IN ADVN FOR FUEL. CALL 603-809-2567 OR 603-616-1247.
Parking: tiedowns
Airframe service: NONE
Powerplant service: NONE
Bottled oxygen: NONE
Bulk oxygen: NONE

Runway Information

Runway 1/19

Dimensions: 2511 x 58 ft. / 765 x 18 m
Surface: asphalt, in fair condition
Weight bearing capacity: 
Single wheel: 8.5
Runway edge lights: low intensity
NSTD SPACING, FIRST 185 FT RWY 01 NOT LGTD.
RUNWAY 1  RUNWAY 19
Latitude: 44-04.605733N44-05.015008N
Longitude: 072-00.425992W072-00.505202W
Elevation: 581.7 ft.546.0 ft.
Traffic pattern: leftleft
Runway heading: 008 magnetic, 352 true188 magnetic, 172 true
Displaced threshold: 185 ft.no
Markings: basic, in good conditionnonprecision, in good condition
Touchdown point: yes, no lightsyes, no lights
Obstructions: 15 ft. road, 200 ft. from runway, 136 ft. right of centerline
PUBLIC DIRT ROAD 5 FT FROM RY END EXTENDING BOTH LEFT AND RIGHT OF CL. ALSO TREES 66FT RWY END 150 FT LEFT.
34 ft. pole, lighted, 292 ft. from runway, 208 ft. left of centerline, 2:1 slope to clear
35 FT UTILITY POLE 160 FT FM RY END 204 FT LEFT OF CL LIGHTED

Airport Ownership and Management from official FAA records

Ownership: Publicly-owned
Owner: TOWN OF HAVERHILL
2975 DARTMOUTH COLLEGE HWY
N. HAVERHILL, NH 03774
Phone 603-787-6800
DEAN MEMORIAL ARPT COMMISSION.
Manager: RALPH CROSWELL
67 TUNNEL STREAM RD
BENTON, NH 03785
Phone (603) 809-2567

Airport Operational Statistics

Aircraft based on the field: 10
Single engine airplanes: 10
    
Aircraft operations: avg 57/week *
75% local general aviation
25% transient general aviation
* for 12-month period ending 17 September 2018

Additional Remarks

FOR WINTER CONDS CALL 603-616-1247 24 HRS BFR USE.
FOR CD CTC BOSTON ARTCC AT 603-879-6859.

Instrument Procedures

NOTE: All procedures below are presented as PDF files. If you need a reader for these files, you should download the free Adobe Reader.

NOT FOR NAVIGATION. Please procure official charts for flight.
FAA instrument procedures published for use from 31 December 2020 at 0901Z to 28 January 2021 at 0900Z.

 
IAPs - Instrument Approach Procedures
RNAV (GPS) RWY 19   download (266KB)
NOTE: Special Take-Off Minimums/Departure Procedures apply   download (178KB)

Other nearby airports with instrument procedures:

KMPV - Edward F Knapp State Airport (25 nm W)
KHIE - Mount Washington Regional Airport (26 nm NE)
KCDA - Caledonia County Airport (29 nm N)
KLEB - Lebanon Municipal Airport (30 nm SW)
KMVL - Morrisville-Stowe State Airport (38 nm NW)
 
Loc | Ops | Rwys | IFR | FBO | Links
Com | Nav | Svcs | Stats | Notes
Area around 5B9 (Dean Memorial Airport)
 
Road maps at: MapQuest Bing Google
 
Aerial photo
WARNING: Photo may not be current or correct
Aerial photo of 5B9 (Dean Memorial Airport)
Photo courtesy of Aerial Design Photography

Do you have a better or more recent aerial photo of Dean Memorial Airport that you would like to share? If so, please send us your photo.

 
Sectional chart

 
Airport distance calculator
Flying to Dean Memorial Airport? Find the distance to fly.

From to 5B9

Sunrise and sunset
Times for 26-Jan-2021
 Local
(UTC-5)
 Zulu
(UTC)
Morning civil twilight06:4211:42
Sunrise07:1312:13
Sunset16:4821:48
Evening civil twilight17:2022:20

Current date and time
Zulu (UTC)  26-Jan-2021 10:33:13
Local (UTC-5)  26-Jan-2021 05:33:13
 
METAR
K1V4 
20nm N 
260954Z AUTO M12/M14 A3008 RMK AO1 SLP207 T11171144
K1P1 
21nm SE 
261015Z AUTO 29003KT 10SM CLR M07/M10 A3007 RMK AO2 T10731100
KMPV 
25nm W 
260951Z AUTO 00000KT 10SM OVC021 M12/M13 A3009 RMK AO2 SLP214 T11221133
KHIE 
26nm NE 
260952Z AUTO 00000KT 10SM OVC008 M20/M22 A3008 RMK AO2 SLP212 T12001222
KCDA 
29nm N 
261015Z AUTO 00000KT 10SM -SN OVC013 M12/M13 A3007 RMK AO2 T11211135
KLEB 
30nm SW 
260953Z AUTO 00000KT 10SM OVC016 M11/M14 A3010 RMK AO2 SLP209 T11111139
KMWN 
33nm E 
260954Z 32019KT 120SM SCT/// SCT180 M15/M18 RMK TPS LWR SCT030
KMVL 
36nm NW 
260954Z AUTO 00000KT 10SM OVC025 M10/M12 A3009 RMK AO2 SLP204 T11001117
KCWN 
36nm E 
260658Z AUTO 15007KT M1/8SM FZFG VV001 M07/M08 A2965 RMK AO2 SLP988 T10741076 410101074 PWINO FZRANO $
KLCI 
40nm SE 
260956Z AUTO 00000KT 10SM CLR M10/M11 A3006 RMK AO2 SLP188 T11001111 FZRANO
TAF
KMPV 
25nm W 
260531Z 2606/2706 00000KT P6SM BKN025 TEMPO 2606/2609 SCT025 FM261400 VRB02KT P6SM BKN050 FM270100 VRB03KT 1 1/2SM -SN BR BKN015 OVC025
KHIE 
26nm NE 
260928Z 2609/2706 00000KT P6SM SCT250 TEMPO 2609/2612 BKN008 FM262000 VRB03KT P6SM BKN050 OVC100 FM270100 VRB03KT 2SM -SN BKN015 OVC025
KLEB 
30nm SW 
260928Z 2609/2706 00000KT P6SM OVC015 FM261400 VRB03KT P6SM BKN050 OVC100 FM262300 VRB03KT 2SM -SN BKN007 OVC015
NOTAMs
Click for the latest NOTAMs
NOTAMs are issued by the DoD/FAA and will open in a separate window not controlled by AirNav.

 

 
 

FBO, Fuel Providers, and Aircraft Ground Support

  
 Business Name 
 
 Contact 
 
 Services / Description 
 
Fuel Prices
 
Comments
  
Dean Memorial Airport 603-738-4158
no information available

If you are affiliated with Dean Memorial Airport and would like to show here your services, contact info, web link, logo, and more, click here
100LL
AS $4.95 
 Updated 28-Dec-2020
 
   write
AS=Assisted/Self Service
Update Fuel Prices
 

Would you like to see your business listed on this page?

 If your business provides an interesting product or service to pilots, flight crews, aircraft, or users of the Dean Memorial Airport, you should consider listing it here.  To start the listing process, click on the button below
 
Add a business
 

Other Pages about Dean Memorial Airport

www.haverhill-nh.com/index.asp?SEC=2E4CB1B4-EC8A-4673-8079-2C23DD1DFB53&Type=B_BASIC
 
Update a link
 
Copyright © AirNav, LLC. All rights reserved. Privacy Policy  Contact